When you browse on this site, cookies collect data to enhance your experience and personalize the content and advertising you see.
Visit our Privacy Policy to learn more. By continuing to use the site, you agree to this use of cookies and data.

Stündliche Wetter Bururi

Heute, 8 Juli, Mittwoch

Zeit Temperatur Niederschläge Wind Luftdruck Luftfeuchtigkeit
00:00 +16°C° 0 mm 1 m/S 616 mmHg 63%
01:00 +16°C° 0 mm 1 m/S 616 mmHg 62%
02:00 +16°C° 0 mm 1 m/S 616 mmHg 62%
03:00 +16°C° 0 mm 1 m/S 616 mmHg 61%
04:00 +16°C° 0 mm 1 m/S 616 mmHg 61%
05:00 +15°C° 0 mm 1 m/S 616 mmHg 60%
06:00 +18°C° 0 mm 1 m/S 617 mmHg 59%
07:00 +19°C° 0 mm 1 m/S 617 mmHg 57%
08:00 +19°C° 0 mm 2 m/S 619 mmHg 54%
09:00 +20°C° 0 mm 2 m/S 619 mmHg 51%
10:00 +23°C° 0 mm 2 m/S 619 mmHg 49%
11:00 +24°C° 0 mm 3 m/S 619 mmHg 46%
12:00 +24°C° 0 mm 3 m/S 619 mmHg 45%
13:00 +25°C° 0 mm 2 m/S 618 mmHg 44%
14:00 +25°C° 0 mm 2 m/S 618 mmHg 43%
15:00 +24°C° 0 mm 2 m/S 617 mmHg 45%
16:00 +24°C° 0 mm 2 m/S 617 mmHg 47%
17:00 +23°C° 0 mm 1 m/S 617 mmHg 48%
18:00 +22°C° 0 mm 1 m/S 616 mmHg 52%
19:00 +20°C° 0 mm 1 m/S 616 mmHg 56%
20:00 +18°C° 0 mm 1 m/S 616 mmHg 60%
21:00 +18°C° 0 mm 1 m/S 616 mmHg 59%
22:00 +18°C° 0 mm 1 m/S 616 mmHg 58%
23:00 +18°C° 0 mm 1 m/S 617 mmHg 57%

Morgen, 9 Juli, Donnerstag

Zeit Temperatur Niederschläge Wind Luftdruck Luftfeuchtigkeit
00:00 +18°C° 0 mm 1 m/S 616 mmHg 57%
01:00 +18°C° 0 mm 1 m/S 616 mmHg 57%
02:00 +16°C° 0 mm 1 m/S 616 mmHg 58%
03:00 +16°C° 0 mm 1 m/S 616 mmHg 59%
04:00 +16°C° 0 mm 1 m/S 616 mmHg 60%
05:00 +16°C° 0 mm 1 m/S 616 mmHg 61%
06:00 +16°C° 0 mm 2 m/S 617 mmHg 59%
07:00 +17°C° 0 mm 2 m/S 617 mmHg 57%
08:00 +18°C° 0 mm 2 m/S 618 mmHg 55%
09:00 +20°C° 0 mm 3 m/S 618 mmHg 52%
10:00 +22°C° 0 mm 3 m/S 619 mmHg 49%
11:00 +24°C° 0 mm 3 m/S 619 mmHg 46%
12:00 +24°C° 0 mm 3 m/S 619 mmHg 44%
13:00 +25°C° 0 mm 3 m/S 618 mmHg 43%
14:00 +25°C° 0 mm 3 m/S 617 mmHg 42%
15:00 +25°C° 0 mm 2 m/S 617 mmHg 44%
16:00 +24°C° 0 mm 2 m/S 616 mmHg 46%
17:00 +23°C° 0 mm 1 m/S 616 mmHg 49%
18:00 +22°C° 0 mm 1 m/S 616 mmHg 52%
19:00 +20°C° 0 mm 1 m/S 616 mmHg 56%
20:00 +19°C° 0 mm 1 m/S 616 mmHg 59%
21:00 +19°C° 0 mm 1 m/S 616 mmHg 59%
22:00 +19°C° 0 mm 1 m/S 616 mmHg 58%
23:00 +18°C° 0 mm 1 m/S 616 mmHg 58%

übermorgen, 10 Juli, Freitag

Zeit Temperatur Niederschläge Wind Luftdruck Luftfeuchtigkeit
00:00 +18°C° 0 mm 1 m/S 616 mmHg 61%
01:00 +18°C° 0 mm 1 m/S 616 mmHg 65%
02:00 +18°C° 0 mm 1 m/S 616 mmHg 68%
03:00 +16°C° 0.1 mm 1 m/S 616 mmHg 72%
04:00 +16°C° 0.1 mm 1 m/S 616 mmHg 76%
05:00 +16°C° 0.1 mm 1 m/S 616 mmHg 80%
06:00 +18°C° 0 mm 1 m/S 617 mmHg 77%
07:00 +18°C° 0 mm 2 m/S 617 mmHg 74%
08:00 +19°C° 0 mm 2 m/S 618 mmHg 71%
09:00 +20°C° 0.2 mm 2 m/S 618 mmHg 68%
10:00 +21°C° 0.2 mm 2 m/S 618 mmHg 65%
11:00 +23°C° 0.2 mm 2 m/S 619 mmHg 62%
12:00 +23°C° 0.2 mm 2 m/S 618 mmHg 59%
13:00 +24°C° 0.2 mm 2 m/S 618 mmHg 57%
14:00 +24°C° 0.2 mm 3 m/S 617 mmHg 54%
15:00 +23°C° 0.2 mm 2 m/S 617 mmHg 57%
16:00 +23°C° 0.2 mm 2 m/S 616 mmHg 59%
17:00 +21°C° 0.2 mm 2 m/S 616 mmHg 62%
18:00 +20°C° 0.1 mm 2 m/S 616 mmHg 67%
19:00 +20°C° 0.1 mm 1 m/S 616 mmHg 72%
20:00 +18°C° 0.1 mm 1 m/S 616 mmHg 77%
21:00 +18°C° 0 mm 1 m/S 616 mmHg 76%
22:00 +18°C° 0 mm 1 m/S 616 mmHg 75%
23:00 +18°C° 0 mm 1 m/S 616 mmHg 74%

11 Juli, Samstag

Zeit Temperatur Niederschläge Wind Luftdruck Luftfeuchtigkeit
00:00 +18°C° 0 mm 1 m/S 616 mmHg 73%
01:00 +18°C° 0 mm 1 m/S 616 mmHg 71%
02:00 +16°C° 0 mm 1 m/S 616 mmHg 70%
03:00 +16°C° 0 mm 1 m/S 616 mmHg 73%
04:00 +16°C° 0 mm 1 m/S 616 mmHg 75%
05:00 +16°C° 0 mm 1 m/S 616 mmHg 78%
06:00 +18°C° 0 mm 1 m/S 617 mmHg 74%
07:00 +18°C° 0 mm 2 m/S 618 mmHg 70%
08:00 +19°C° 0 mm 2 m/S 619 mmHg 66%
09:00 +20°C° 0 mm 2 m/S 619 mmHg 61%
10:00 +21°C° 0 mm 2 m/S 619 mmHg 56%
11:00 +24°C° 0 mm 2 m/S 619 mmHg 51%
12:00 +24°C° 0 mm 2 m/S 618 mmHg 50%
13:00 +24°C° 0 mm 2 m/S 618 mmHg 48%
14:00 +25°C° 0 mm 2 m/S 617 mmHg 47%
15:00 +24°C° 0 mm 1 m/S 617 mmHg 50%
16:00 +24°C° 0 mm 1 m/S 616 mmHg 53%
17:00 +23°C° 0 mm 1 m/S 616 mmHg 56%
18:00 +22°C° 0 mm 1 m/S 616 mmHg 59%
19:00 +20°C° 0 mm 1 m/S 616 mmHg 62%
20:00 +19°C° 0 mm 1 m/S 616 mmHg 66%
21:00 +19°C° 0 mm 1 m/S 616 mmHg 65%
22:00 +19°C° 0 mm 1 m/S 617 mmHg 63%
23:00 +19°C° 0 mm 1 m/S 617 mmHg 62%

12 Juli, Sonntag

Zeit Temperatur Niederschläge Wind Luftdruck Luftfeuchtigkeit
00:00 +19°C° 0 mm 1 m/S 616 mmHg 64%
01:00 +19°C° 0 mm 1 m/S 616 mmHg 65%
02:00 +18°C° 0 mm 1 m/S 615 mmHg 67%
03:00 +18°C° 0 mm 1 m/S 616 mmHg 68%
04:00 +18°C° 0 mm 1 m/S 616 mmHg 69%
05:00 +18°C° 0 mm 1 m/S 616 mmHg 70%
06:00 +18°C° 0.1 mm 1 m/S 617 mmHg 69%
07:00 +18°C° 0.1 mm 2 m/S 618 mmHg 67%
08:00 +19°C° 0.1 mm 2 m/S 618 mmHg 65%
09:00 +20°C° 0.1 mm 2 m/S 619 mmHg 62%
10:00 +21°C° 0.1 mm 2 m/S 619 mmHg 59%
11:00 +23°C° 0.1 mm 2 m/S 619 mmHg 57%
12:00 +24°C° 0.2 mm 2 m/S 618 mmHg 55%
13:00 +24°C° 0.2 mm 2 m/S 618 mmHg 53%
14:00 +24°C° 0.2 mm 2 m/S 617 mmHg 52%
15:00 +24°C° 0 mm 2 m/S 616 mmHg 53%
16:00 +24°C° 0 mm 2 m/S 616 mmHg 54%
17:00 +23°C° 0 mm 1 m/S 616 mmHg 55%
18:00 +22°C° 0 mm 1 m/S 616 mmHg 60%
19:00 +20°C° 0 mm 1 m/S 616 mmHg 65%
20:00 +19°C° 0 mm 1 m/S 616 mmHg 69%
21:00 +19°C° 0 mm 1 m/S 616 mmHg 69%
22:00 +19°C° 0 mm 1 m/S 616 mmHg 69%
23:00 +18°C° 0 mm 1 m/S 616 mmHg 68%

13 Juli, Montag

Zeit Temperatur Niederschläge Wind Luftdruck Luftfeuchtigkeit
00:00 +18°C° 0 mm 1 m/S 616 mmHg 68%
01:00 +18°C° 0 mm 1 m/S 616 mmHg 68%
02:00 +16°C° 0 mm 1 m/S 615 mmHg 67%
03:00 +16°C° 0 mm 1 m/S 615 mmHg 67%
04:00 +16°C° 0 mm 2 m/S 616 mmHg 67%
05:00 +15°C° 0 mm 2 m/S 616 mmHg 67%
06:00 +16°C° 0 mm 3 m/S 616 mmHg 60%
07:00 +16°C° 0 mm 3 m/S 617 mmHg 53%
08:00 +17°C° 0 mm 3 m/S 618 mmHg 46%
09:00 +18°C° 0 mm 3 m/S 618 mmHg 43%
10:00 +20°C° 0 mm 3 m/S 618 mmHg 39%
11:00 +22°C° 0 mm 3 m/S 618 mmHg 35%
12:00 +22°C° 0 mm 3 m/S 618 mmHg 35%
13:00 +22°C° 0 mm 3 m/S 617 mmHg 34%
14:00 +24°C° 0 mm 3 m/S 617 mmHg 33%
15:00 +23°C° 0 mm 2 m/S 616 mmHg 36%
16:00 +23°C° 0 mm 2 m/S 616 mmHg 38%
17:00 +22°C° 0 mm 1 m/S 615 mmHg 41%
18:00 +20°C° 0 mm 1 m/S 615 mmHg 45%
19:00 +19°C° 0 mm 1 m/S 615 mmHg 49%
20:00 +16°C° 0 mm 1 m/S 615 mmHg 54%
21:00 +16°C° 0 mm 1 m/S 615 mmHg 53%
22:00 +16°C° 0 mm 1 m/S 616 mmHg 52%
23:00 +16°C° 0 mm 1 m/S 616 mmHg 51%
Mehr zeigen